1496566800.52,52345,20.38,73974.0,13.59,2.13,0.95,0,*7A
1496566801.73,52346,20.38,73974.3,13.59,3.11,2.27,0,*41
1496566802.94,52347,20.44,73976.0,13.63,3.93,3.49,0,*4A
1496566804.12,52348,20.38,73972.5,13.63,4.53,4.19,0,*4C
1496566805.36,52349,20.38,73972.0,13.65,4.27,4.05,0,*45
1496566806.56,52350,20.44,73976.0,13.67,4.07,3.89,0,*4E
1496566807.79,52351,20.44,73978.0,13.65,3.81,3.75,0,*47
1496566809.0,52352,20.38,73972.5,13.67,3.85,3.97,0,*4E
1496566810.24,52353,20.38,73972.8,13.65,3.25,3.33,0,*49
1496566811.48,52354,20.44,73976.0,13.63,3.07,3.15,0,*4C
1496566812.67,52355,20.44,73978.3,13.63,3.93,4.15,0,*47
1496566813.88,52356,20.38,73976.0,13.59,4.37,4.59,0,*4C
1496566815.07,52357,20.38,73976.0,13.59,3.93,4.07,0,*4F
1496566816.26,52358,20.38,73972.8,13.59,4.11,4.23,0,*4B
1496566817.52,52359,20.38,73974.8,13.57,3.79,4.01,0,*4D
1496566818.75,52360,20.44,73976.8,13.53,4.75,4.97,0,*47
1496566819.96,52361,20.38,73974.0,13.51,4.41,4.53,0,*4B
1496566821.19,52362,20.38,73976.8,13.51,4.97,5.11,0,*44
1496566822.45,52363,20.38,73974.8,13.51,4.71,4.59,0,*40
1496566823.68,52364,20.38,73978.0,13.51,4.41,4.31,0,*4A
1496566824.88,52365,20.38,73976.0,13.47,4.23,4.19,0,*42
1496566826.09,52366,20.38,73976.8,13.47,4.11,4.07,0,*4F
1496566827.3,52367,20.44,73982.3,13.43,4.15,4.07,0,*4E
1496566828.5,52368,20.44,73980.0,13.43,4.45,4.33,0,*43
1496566829.69,52369,20.38,73978.8,13.37,4.27,4.07,0,*42
1496566830.86,52370,20.44,73976.5,13.37,4.27,4.11,0,*4D
1496566832.07,52371,20.44,73978.3,13.37,5.07,4.97,0,*41
1496566833.33,52372,20.38,73976.3,13.35,4.97,4.71,0,*40
1496566834.54,52373,20.38,73976.0,13.33,4.31,4.11,0,*4D
1496566835.77,52374,20.38,73976.5,13.33,4.31,3.97,0,*43
1496566836.98,52375,20.38,73976.0,13.31,4.33,4.07,0,*4C
1496566838.22,52376,20.38,73976.0,13.31,4.89,4.75,0,*4B
1496566839.48,52377,20.38,73972.3,13.31,3.49,3.37,0,*40
1496566840.72,52378,20.38,73974.8,13.31,3.15,3.29,0,*49
1496566841.93,52379,20.38,73976.8,13.29,3.33,3.89,0,*4F
1496566843.13,52380,20.38,73982.5,13.29,3.45,4.49,0,*43
1496566844.32,52381,20.44,73982.5,13.29,3.93,5.33,0,*45
1496566845.56,52382,20.38,73980.5,13.31,3.71,5.37,0,*47
1496566846.74,52383,20.38,73982.3,13.33,3.85,5.63,0,*4E
1496566847.95,52384,20.44,73982.0,13.37,4.11,5.85,0,*4F
1496566849.16,52385,20.38,73976.8,13.41,4.05,5.67,0,*46
1496566850.4,52386,20.38,73978.3,13.43,3.15,4.85,0,*4C
1496566851.63,52387,20.38,73978.8,13.43,2.55,4.57,0,*47
1496566852.84,52388,20.38,73978.0,13.49,1.97,4.33,0,*4D
1496566854.02,52389,20.44,73978.8,13.49,2.35,5.11,0,*46
1496566855.23,52390,20.44,73980.8,13.53,2.55,5.71,0,*45
1496566856.46,52391,20.38,73972.3,13.55,2.31,5.81,0,*4F
1496566857.72,52392,20.44,73974.0,13.57,2.05,5.51,0,*44
1496566858.93,52393,20.44,73972.3,13.59,2.25,5.45,0,*4C
1496566860.14,52394,20.44,73976.5,13.63,1.09,4.19,0,*47
1496566861.38,52395,20.44,73972.3,13.65,2.39,5.37,0,*4D
1496566862.62,52396,20.44,73974.8,13.65,3.15,5.95,0,*49
1496566863.8,52397,20.44,73976.8,13.67,3.63,6.21,0,*47
1496566865.06,52398,20.44,73976.0,13.69,3.45,5.89,0,*43
1496566866.27,52399,20.38,73972.3,13.69,3.29,5.45,0,*48
1496566867.51,52400,20.44,73976.3,13.69,3.23,5.41,0,*41
1496566868.74,52401,20.38,73974.8,13.69,1.89,3.93,0,*4B
1496566869.97,52402,20.44,73976.8,13.69,3.55,5.73,0,*43
1496566871.21,52403,20.38,73974.5,13.67,3.79,5.93,0,*4C
1496566872.47,52404,20.44,73976.0,13.69,4.05,5.89,0,*42
1496566873.71,52405,20.38,73976.0,13.69,4.59,6.33,0,*48
1496566874.97,52406,20.38,73976.8,13.69,4.97,6.43,0,*4E
1496566876.18,52407,20.44,73982.5,13.71,5.07,6.35,0,*4F
1496566877.42,52408,20.38,73978.5,13.73,4.97,6.25,0,*4B
1496566878.68,52409,20.44,73982.8,13.73,4.75,5.81,0,*4B
1496566879.91,52410,20.38,73982.8,13.69,5.41,6.35,0,*42
1496566881.15,52411,20.38,73982.8,13.73,4.97,5.71,0,*41
1496566882.4,52412,20.38,73980.5,13.69,4.59,5.23,0,*4C
1496566883.65,52413,20.38,73982.8,13.69,4.37,4.93,0,*4F
1496566884.88,52414,20.38,73980.5,13.69,4.05,4.49,0,*4E
1496566886.1,52415,20.38,73978.0,13.67,4.93,5.37,0,*46
1496566887.34,52416,20.38,73978.3,13.65,5.01,5.33,0,*49
1496566888.55,52417,20.38,73972.0,13.65,4.07,4.27,0,*4B
1496566889.74,52418,20.44,73974.5,13.63,4.27,4.37,0,*41
1496566890.94,52419,20.38,73974.5,13.59,2.89,2.95,0,*45
1496566892.15,52420,20.44,73972.0,13.55,3.85,3.89,0,*42
1496566893.36,52421,20.44,73974.5,13.55,4.57,4.57,0,*4F
1496566894.57,52422,20.38,73978.8,13.53,5.05,5.15,0,*4B
1496566895.78,52423,20.38,73976.0,13.53,4.75,4.85,0,*44
1496566897.01,52424,20.38,73978.5,13.51,4.85,4.93,0,*49
1496566898.21,52425,20.44,73980.8,13.51,5.07,5.41,0,*4D
1496566899.4,52426,20.44,73978.5,13.51,5.29,5.63,0,*42
1496566900.63,52427,20.38,73980.3,13.51,5.11,5.55,0,*4D
1496566901.89,52428,20.44,73980.3,13.51,4.31,4.63,0,*45
1496566903.06,52429,20.38,73980.3,13.49,3.55,4.15,0,*49
1496566904.27,52430,20.44,73982.0,13.47,4.19,4.89,0,*45
1496566905.52,52431,20.44,73978.8,13.43,1.59,2.05,0,*43
1496566906.76,52432,20.44,73972.0,13.43,2.69,3.23,0,*45
1496566907.95,52433,20.44,73966.8,13.37,3.89,4.37,0,*4A
1496566909.14,52434,20.44,73966.8,13.41,4.37,4.89,0,*4B
1496566910.32,52435,20.38,73964.8,13.37,4.33,4.85,0,*43
1496566911.52,52436,20.38,73964.8,13.37,3.67,4.27,0,*4E
1496566912.73,52437,20.38,73968.5,13.37,3.19,3.89,0,*45
1496566913.94,52438,20.44,73974.3,13.33,4.19,5.01,0,*4F
1496566915.17,52439,20.38,73970.8,13.35,4.33,5.05,0,*44
1496566916.4,52440,20.44,73972.8,13.35,3.33,3.89,0,*4F
1496566917.6,52441,20.44,73974.8,13.33,3.37,3.85,0,*40
1496566918.86,52442,20.38,73970.5,13.31,3.03,3.53,0,*4D
1496566920.05,52443,20.44,73972.3,13.29,3.93,4.41,0,*48
1496566921.23,52444,20.44,73974.0,13.29,4.85,5.37,0,*4F
1496566922.41,52445,20.38,73972.3,13.29,4.85,5.45,0,*4B
1496566923.65,52446,20.38,73970.5,13.31,5.01,5.59,0,*41
1496566924.86,52447,20.44,73974.5,13.29,4.15,4.59,0,*4C
1496566926.05,52448,20.44,73976.0,13.29,4.49,5.23,0,*46
1496566927.25,52449,20.44,73972.5,13.29,5.51,6.29,0,*46
1496566928.43,52450,20.44,73974.5,13.29,4.49,5.29,0,*45
1496566929.66,52451,20.44,73974.8,13.31,4.79,5.59,0,*49
1496566930.9,52452,20.44,73974.5,13.29,4.05,4.79,0,*4B
1496566932.12,52453,20.44,73974.3,13.29,4.07,4.71,0,*40
1496566933.38,52454,20.44,73976.5,13.27,3.23,3.75,0,*4B
1496566934.59,52455,20.38,73972.5,13.25,3.41,3.85,0,*43
1496566935.77,52456,20.44,73972.3,13.25,3.81,4.19,0,*4E
1496566936.99,52457,20.44,73974.3,13.23,3.53,3.97,0,*47
1496566938.23,52458,20.44,73970.0,13.21,3.93,4.31,0,*4D
1496566939.47,52459,20.38,73966.5,13.21,4.27,4.67,0,*47
1496566940.73,52460,20.38,73968.3,13.21,4.59,4.79,0,*4B
1496566941.96,52461,20.44,73972.8,13.21,4.49,4.67,0,*44
1496566943.2,52462,20.38,73974.5,13.19,3.67,3.71,0,*47
1496566944.45,52463,20.44,73976.0,13.17,3.75,3.79,0,*43
1496566945.68,52464,20.44,73976.3,13.17,2.95,2.85,0,*49
1496566946.92,52465,20.44,73972.0,13.11,3.03,3.03,0,*4F
1496566948.13,52466,20.44,73972.8,13.07,3.29,3.33,0,*40
1496566949.39,52467,20.38,73968.5,13.05,4.59,4.59,0,*48
1496566950.66,52468,20.44,73974.8,13.05,4.63,4.75,0,*40
1496566951.87,52469,20.44,73978.3,13.05,4.45,4.53,0,*41
1496566953.14,52470,20.44,73972.3,13.05,4.63,4.71,0,*4D
1496566954.35,52471,20.44,73974.8,13.03,4.71,4.81,0,*46
1496566955.57,52472,20.44,73974.0,13.03,5.01,5.15,0,*4F
1496566956.78,52473,20.44,73974.5,13.03,5.15,5.27,0,*4A
1496566957.97,52474,20.44,73972.5,13.03,5.15,5.23,0,*49
1496566959.18,52475,20.44,73972.8,13.03,4.81,5.01,0,*44
1496566960.36,52476,20.44,73974.0,13.03,4.45,4.49,0,*42
1496566961.59,52477,20.38,73970.5,13.05,5.27,5.33,0,*4C
1496566962.81,52478,20.44,73974.0,13.03,5.05,5.15,0,*41
1496566964.02,52479,20.44,73974.8,13.03,4.81,5.01,0,*48
1496566965.27,52480,20.44,73972.3,13.05,4.97,5.07,0,*49
1496566966.49,52481,20.44,73972.8,13.01,4.37,4.45,0,*41
1496566967.7,52482,20.44,73970.3,13.01,4.27,4.37,0,*46
1496566968.97,52483,20.44,73968.3,13.01,4.63,4.79,0,*4D
1496566970.17,52484,20.44,73968.3,13.01,5.37,5.71,0,*43
1496566971.36,52485,20.44,73974.3,12.99,5.49,5.71,0,*4B
1496566972.58,52486,20.44,73972.0,12.99,5.01,5.11,0,*42
1496566973.82,52487,20.44,73974.8,12.99,4.79,4.97,0,*42
1496566975.06,52488,20.44,73974.8,13.01,4.79,4.89,0,*42
1496566976.27,52489,20.44,73974.8,12.99,4.31,4.45,0,*4F
1496566977.49,52490,20.44,73970.3,12.99,4.57,4.79,0,*48
1496566978.68,52491,20.44,73970.3,12.99,5.07,5.19,0,*4A
1496566979.93,52492,20.44,73968.0,12.99,4.75,4.75,0,*46
1496566981.14,52493,20.44,73970.5,12.97,4.11,4.23,0,*48
1496566982.33,52494,20.44,73972.3,12.95,4.33,4.41,0,*49
1496566983.53,52495,20.44,73972.3,12.95,3.53,3.55,0,*4B
1496566984.73,52496,20.44,73974.0,12.91,3.59,3.63,0,*43
1496566985.93,52497,20.44,73976.0,12.89,3.63,3.71,0,*41
1496566987.14,52498,20.44,73976.3,12.87,4.53,4.45,0,*44
1496566988.35,52499,20.44,73972.5,12.85,4.59,4.53,0,*4A
1496566989.55,52500,20.44,73972.8,12.85,3.59,3.53,0,*4B
1496566990.8,52501,20.44,73974.8,12.83,3.03,2.85,0,*49
1496566992.05,52502,20.44,73974.0,12.79,2.39,2.21,0,*49
1496566993.29,52503,20.44,73972.5,12.77,2.59,2.59,0,*4F
1496566994.52,52504,20.44,73974.0,12.73,3.53,3.37,0,*4E
1496566995.72,52505,20.44,73974.8,12.73,3.29,3.19,0,*4E
1496566996.98,52506,20.44,73974.5,12.67,2.55,2.39,0,*41
1496566998.22,52507,20.44,73974.0,12.63,2.61,2.51,0,*4D
1496566999.48,52508,20.44,73972.8,12.63,2.25,2.13,0,*44
1496567000.69,52509,20.44,73972.3,12.59,2.69,2.65,0,*45
1496567001.93,52510,20.44,73976.3,12.57,2.77,2.61,0,*48
1496567003.15,52511,20.44,73978.8,12.55,2.73,2.55,0,*48
1496567004.38,52512,20.44,73978.0,12.51,3.19,3.07,0,*44
1496567005.62,52513,20.44,73980.3,12.49,4.23,4.31,0,*40
1496567006.88,52514,20.44,73976.8,12.45,4.31,4.31,0,*48
1496567008.1,52515,20.44,73976.0,12.49,4.41,4.41,0,*45
1496567009.37,52516,20.44,73976.5,12.45,3.67,3.49,0,*46
1496567010.62,52517,20.44,73974.8,12.45,2.77,2.55,0,*4B
1496567011.82,52518,20.44,73972.8,12.39,2.47,2.31,0,*4E
1496567013.08,52519,20.44,73974.0,12.37,2.69,2.77,0,*4F
1496567014.31,52520,20.44,73978.0,12.35,3.23,3.11,0,*49
1496567015.57,52521,20.44,73976.5,12.33,2.85,2.69,0,*4D
1496567016.83,52522,20.44,73978.5,12.33,2.81,2.69,0,*4A
1496567018.06,52523,20.44,73976.5,12.29,3.59,3.49,0,*47
1496567019.32,52524,20.44,73976.8,12.29,3.19,3.03,0,*4A
1496567020.52,52525,20.44,73974.8,12.23,3.59,3.45,0,*47
1496567021.73,52526,20.44,73980.0,12.21,4.41,4.37,0,*4A
1496567022.97,52527,20.44,73978.8,12.21,4.23,4.05,0,*4E
1496567024.22,52528,20.44,73984.3,12.21,4.01,4.01,0,*45
1496567025.43,52529,20.44,73984.5,12.19,4.59,4.53,0,*45
1496567026.64,52530,20.44,73984.8,12.21,3.89,3.81,0,*44
1496567027.87,52531,20.38,73980.8,12.19,3.67,3.53,0,*41
1496567029.11,52532,20.44,73982.5,12.17,4.23,4.31,0,*48
1496567030.37,52533,20.44,73976.8,12.17,4.71,4.67,0,*4D
1496567031.63,52534,20.44,73976.3,12.17,3.97,3.97,0,*4D
1496567032.87,52535,20.44,73976.3,12.15,3.75,3.75,0,*4E
1496567034.05,52536,20.44,73976.0,12.15,3.85,3.81,0,*49
1496567035.28,52537,20.44,73976.0,12.13,3.29,3.11,0,*41
1496567036.46,52538,20.44,73980.0,12.11,3.55,3.55,0,*47
1496567037.7,52539,20.44,73984.5,12.11,3.71,3.71,0,*46
1496567038.93,52540,20.44,73984.3,12.09,3.25,3.15,0,*42
1496567040.16,52541,20.44,73982.0,12.07,2.69,2.59,0,*4D
1496567041.36,52542,20.38,73974.5,12.05,2.99,2.91,0,*47
1496567042.62,52543,20.44,73976.3,12.01,3.37,3.45,0,*4F
1496567043.83,52544,20.44,73978.0,11.99,3.37,3.29,0,*40
1496567045.06,52545,20.44,73978.5,11.97,3.29,3.19,0,*43
1496567046.31,52546,20.44,73980.0,11.97,2.69,2.55,0,*4C
1496567047.55,52547,20.44,73980.8,11.93,2.59,2.59,0,*46
1496567048.78,52548,20.44,73980.5,11.93,3.41,3.49,0,*41
1496567049.97,52549,20.44,73982.3,11.91,3.55,3.55,0,*4A
1496567051.2,52550,20.44,73976.3,11.89,3.33,3.33,0,*4B
1496567052.46,52551,20.44,73976.5,11.87,2.81,2.73,0,*49
1496567053.72,52552,20.44,73976.3,11.87,3.19,3.15,0,*4B
1496567054.95,52553,20.44,73980.5,11.81,3.49,3.45,0,*4C
1496567056.19,52554,20.44,73980.3,11.81,3.23,3.15,0,*42
1496567057.42,52555,20.44,73978.5,11.79,2.43,2.35,0,*40
1496567058.66,52556,20.44,73982.3,11.75,2.73,2.61,0,*4D
1496567059.86,52557,20.44,73980.3,11.73,3.25,3.19,0,*46
1496567061.12,52558,20.44,73982.0,11.71,3.49,3.45,0,*48
1496567062.39,52559,20.44,73980.3,11.71,3.71,3.67,0,*42
1496567063.65,52560,20.44,73980.8,11.71,3.79,3.71,0,*47
1496567064.89,52561,20.44,73982.8,11.69,2.89,2.77,0,*46
1496567066.11,52562,20.44,73980.5,11.69,1.67,1.47,0,*46
1496567067.32,52563,20.38,73976.8,11.65,2.69,2.65,0,*45
1496567068.56,52564,20.44,73980.8,11.61,2.85,2.65,0,*44
1496567069.82,52565,20.44,73982.0,11.61,2.51,2.39,0,*45
1496567071.05,52566,20.44,73978.8,11.59,3.49,3.45,0,*4F
1496567072.25,52567,20.44,73980.8,11.57,3.63,3.55,0,*49
1496567073.5,52568,20.44,73980.8,11.57,3.23,3.23,0,*43
1496567074.74,52569,20.44,73984.3,11.57,2.95,2.81,0,*47
1496567075.97,52570,20.44,73986.3,11.53,3.03,2.91,0,*44
1496567077.2,52571,20.44,73986.3,11.51,2.77,2.59,0,*41
1496567078.44,52572,20.44,73982.8,11.47,2.47,2.39,0,*40
1496567079.68,52573,20.44,73986.3,11.47,3.11,3.07,0,*4F
1496567080.92,52574,20.44,73984.5,11.43,2.77,2.59,0,*47
1496567082.1,52575,20.44,73984.5,11.43,2.95,2.95,0,*4A
1496567083.34,52576,20.44,73986.3,11.43,3.75,3.67,0,*4A
1496567084.58,52577,20.44,73988.5,11.43,3.75,3.79,0,*44
1496567085.76,52578,20.44,73988.0,11.43,4.11,4.11,0,*47
1496567086.99,52579,20.44,73984.5,11.41,3.59,3.53,0,*4E
1496567088.17,52580,20.44,73988.5,11.43,4.23,4.19,0,*49
1496567089.36,52581,20.44,73984.0,11.39,4.23,4.23,0,*4C
1496567090.57,52582,20.38,73982.0,11.41,4.53,4.45,0,*47
1496567091.78,52583,20.44,73982.5,11.41,4.53,4.53,0,*41
1496567093.0,52584,20.44,73986.3,11.41,4.07,4.07,0,*46
1496567094.21,52585,20.44,73980.3,11.39,3.71,3.63,0,*4B
1496567095.42,52586,20.44,73982.3,11.39,3.33,3.25,0,*4C
1496567096.66,52587,20.44,73982.8,11.39,3.45,3.37,0,*4F
1496567097.93,52588,20.44,73976.0,11.37,4.05,4.05,0,*4B
1496567099.15,52589,20.44,73978.5,11.37,3.93,3.89,0,*41
1496567100.37,52590,20.44,73980.3,11.35,4.01,3.93,0,*4C
1496567101.58,52591,20.44,73976.0,11.35,3.59,3.67,0,*4C
1496567102.81,52592,20.44,73980.8,11.31,3.79,3.85,0,*45
1496567104.03,52593,20.44,73980.3,11.31,4.37,4.33,0,*43
1496567105.28,52594,20.44,73980.8,11.31,4.59,4.57,0,*4E
1496567106.46,52595,20.44,73984.0,11.35,4.81,4.81,0,*45
1496567107.71,52596,20.44,73982.0,11.35,4.75,4.75,0,*46
1496567108.92,52597,20.44,73982.0,11.35,4.59,4.49,0,*46
1496567110.13,52598,20.44,73980.0,11.37,4.19,4.27,0,*47
1496567111.32,52599,20.44,73984.3,11.35,4.19,4.15,0,*45
1496567112.53,52600,20.44,73984.8,11.35,4.31,4.19,0,*40
1496567113.72,52601,20.44,73984.5,11.35,4.27,4.11,0,*4E
1496567114.94,52602,20.44,73984.3,11.35,4.05,3.93,0,*40
1496567116.15,52603,20.44,73984.3,11.35,3.81,3.71,0,*46
1496567117.34,52604,20.44,73984.5,11.29,4.23,4.11,0,*42
1496567118.53,52605,20.44,73990.5,11.29,4.45,4.41,0,*46
1496567119.77,52606,20.44,73984.5,11.31,3.45,3.29,0,*42
1496567121.0,52607,20.44,73982.8,11.29,2.77,2.77,0,*40
1496567122.25,52608,20.44,73982.0,11.29,3.41,3.41,0,*4F
1496567123.48,52609,20.44,73982.5,11.25,3.53,3.49,0,*49
1496567124.74,52610,20.44,73976.8,11.27,3.53,3.49,0,*43
1496567125.93,52611,20.44,73978.8,11.25,3.93,3.89,0,*40
1496567127.17,52612,20.44,73976.5,11.25,4.31,4.31,0,*48
1496567128.38,52613,20.44,73978.8,11.25,5.01,4.89,0,*48
1496567129.62,52614,20.44,73978.5,11.25,4.71,4.63,0,*4D
1496567130.83,52615,20.44,73978.0,11.25,4.63,4.53,0,*4C
1496567132.04,52616,20.44,73976.3,11.25,4.15,4.05,0,*4D
1496567133.28,52617,20.44,73972.5,11.25,3.71,3.67,0,*4A
1496567134.5,52618,20.44,73974.5,11.23,3.89,3.89,0,*44
1496567135.74,52619,20.44,73976.3,11.23,3.59,3.49,0,*44
1496567136.98,52620,20.44,73976.8,11.21,3.75,3.67,0,*4E
1496567138.22,52621,20.44,73974.5,11.21,3.33,3.33,0,*4C
1496567139.47,52622,20.44,73974.0,11.21,2.81,2.81,0,*4F
1496567140.7,52623,20.44,73976.5,11.17,2.89,2.85,0,*47
1496567141.94,52624,20.44,73978.0,11.17,3.23,3.23,0,*4C
1496567143.15,52625,20.44,73978.8,11.17,3.59,3.49,0,*4C
1496567144.41,52626,20.44,73976.5,11.15,3.23,3.19,0,*45
1496567145.64,52627,20.44,73976.3,11.13,3.19,3.19,0,*4B
1496567146.85,52628,20.44,73978.3,11.13,3.29,3.19,0,*47
1496567148.11,52629,20.44,73976.0,11.11,3.19,3.07,0,*48
1496567149.38,52630,20.44,73976.5,11.11,2.51,2.51,0,*4F
1496567150.62,52631,20.44,73976.5,11.07,3.03,2.99,0,*4B
1496567151.87,52632,20.44,73976.5,11.05,3.07,3.07,0,*48
1496567153.06,52633,20.44,73980.3,11.05,3.85,3.81,0,*4D
1496567154.31,52634,20.44,73978.3,11.03,4.27,4.31,0,*4F
1496567155.55,52635,20.38,73978.8,11.05,4.97,4.97,0,*4F
1496567156.79,52636,20.44,73976.8,11.03,4.31,4.27,0,*4D
1496567158.01,52637,20.44,73978.8,11.05,2.95,2.89,0,*40
1496567159.28,52638,20.44,73978.8,11.03,3.15,3.11,0,*40
1496567160.5,52639,20.44,73974.5,11.03,3.25,3.25,0,*45
1496567161.72,52640,20.44,73978.0,10.99,2.91,2.85,0,*4C
1496567162.92,52641,20.44,73976.0,10.99,3.81,3.81,0,*48
1496567164.12,52642,20.44,73976.8,10.99,4.45,4.45,0,*4B
1496567165.32,52643,20.44,73976.8,10.99,4.27,4.15,0,*4B
1496567166.52,52644,20.44,73976.8,10.99,4.27,4.33,0,*48
1496567167.72,52645,20.44,73978.0,10.99,4.23,4.11,0,*4D
1496567168.94,52646,20.44,73976.5,10.97,4.01,4.01,0,*41
1496567170.13,52647,20.44,73976.3,10.97,4.57,4.59,0,*4E
1496567171.38,52648,20.44,73980.0,10.99,3.79,3.67,0,*4E
1496567172.64,52649,20.44,73976.5,10.99,3.45,3.45,0,*40
1496567173.89,52650,20.38,73972.3,10.95,3.45,3.37,0,*41
1496567175.09,52651,20.44,73974.8,10.93,2.95,2.85,0,*42
1496567176.26,52652,20.44,73972.0,10.93,3.81,3.81,0,*40
1496567177.44,52653,20.44,73974.5,10.93,4.85,4.85,0,*41
1496567178.64,52654,20.44,73974.5,10.93,4.63,4.49,0,*4E
1496567179.87,52655,20.44,73972.8,10.93,4.93,4.93,0,*47
1496567181.08,52656,20.44,73970.8,10.95,5.11,5.07,0,*45
1496567182.33,52657,20.44,73972.3,10.99,4.63,4.59,0,*46
1496567183.5,52658,20.44,73972.8,10.97,4.19,4.27,0,*43
1496567184.67,52659,20.44,73978.0,10.97,4.27,4.19,0,*42
1496567185.93,52660,20.44,73976.0,10.95,4.05,4.05,0,*47
1496567187.18,52661,20.44,73974.5,10.95,3.97,3.97,0,*46
1496567188.44,52662,20.44,73974.8,10.95,4.75,4.79,0,*49
1496567189.62,52663,20.44,73974.8,10.93,5.19,5.33,0,*4A
1496567190.82,52664,20.44,73972.0,10.93,5.67,5.77,0,*44
1496567191.99,52665,20.44,73972.5,10.97,6.21,6.29,0,*48
1496567193.19,52666,20.44,73974.0,11.01,6.25,6.33,0,*4A
1496567194.4,52667,20.44,73972.5,11.01,6.13,6.21,0,*4D
1496567195.64,52668,20.44,73974.0,11.03,6.03,6.13,0,*40
1496567196.89,52669,20.44,73976.3,11.07,6.33,6.51,0,*40
1496567198.14,52670,20.44,73978.8,11.07,6.33,6.43,0,*4B
1496567199.39,52671,20.44,73978.0,11.11,6.21,6.35,0,*4F
1496567200.63,52672,20.44,73974.3,11.13,5.73,5.89,0,*4E
1496567201.85,52673,20.44,73974.8,11.13,5.27,5.27,0,*4A
1496567203.1,52674,20.44,73978.3,11.15,5.01,5.11,0,*4A
1496567204.3,52675,20.44,73978.8,11.17,5.07,5.23,0,*4E
1496567205.51,52676,20.44,73982.5,11.17,5.71,5.93,0,*47
1496567206.73,52677,20.44,73982.0,11.17,5.93,5.99,0,*40
1496567207.95,52678,20.44,73986.0,11.19,5.59,5.59,0,*4B
1496567209.17,52679,20.44,73982.0,11.21,4.75,4.57,0,*41
1496567210.39,52680,20.44,73976.5,11.23,4.37,4.07,0,*46
1496567211.58,52681,20.44,73976.8,11.21,4.27,3.89,0,*45
1496567212.82,52682,20.44,73984.0,11.23,4.05,3.59,0,*49
1496567214.06,52683,20.44,73976.5,11.25,3.79,3.11,0,*4E
1496567215.3,52684,20.44,73976.5,11.29,3.41,2.59,0,*43
1496567216.55,52685,20.44,73976.0,11.35,3.11,2.51,0,*42
1496567217.81,52686,20.44,73974.8,11.37,2.01,1.33,0,*44
1496567219.06,52687,20.44,73978.5,11.39,1.97,1.33,0,*47
1496567220.29,52688,20.44,73974.3,11.41,2.31,1.67,0,*49
1496567221.54,52689,20.44,73978.3,11.45,2.39,1.67,0,*44
1496567222.76,52690,20.44,73976.8,11.47,1.75,1.21,0,*47
1496567224.0,52691,20.44,73978.5,11.51,1.71,1.21,0,*45
1496567225.26,52692,20.44,73980.3,11.53,1.29,0.79,0,*75
1496567226.48,52693,20.44,73978.5,11.59,1.59,1.17,0,*40
1496567227.74,52694,20.44,73980.3,11.61,2.77,2.17,0,*40
1496567228.95,52695,20.44,73980.0,11.67,3.29,2.91,0,*43
1496567230.19,52696,20.44,73980.3,11.71,2.61,2.43,0,*45
1496567231.42,52697,20.44,73982.3,11.75,1.05,0.83,0,*7F
1496567232.67,52698,20.44,73972.8,11.79,0.33,0.21,0,*40
1496567233.93,52699,20.44,73968.3,11.79,0.87,0.71,0,*4B
1496567235.12,52700,20.44,73972.3,11.81,0.47,0.43,0,*40
1496567236.36,52701,20.44,73972.8,11.79,1.09,1.05,0,*4E
1496567237.6,52702,20.44,73972.0,11.79,1.79,1.51,0,*4B
1496567238.87,52703,20.44,73974.8,11.79,1.21,0.59,0,*7E
1496567240.1,52704,20.44,73974.0,11.75,1.55,1.01,0,*4A
1496567241.36,52705,20.44,73974.0,11.75,1.55,0.75,0,*79
1496567242.6,52706,20.44,73972.5,11.73,1.93,1.21,0,*46
1496567243.81,52707,20.44,73972.3,11.69,2.61,1.93,0,*4B
1496567245.07,52708,20.44,73970.5,11.71,3.37,2.85,0,*4B
1496567246.28,52709,20.44,73972.8,11.69,3.59,3.03,0,*44
1496567247.48,52710,20.44,73974.0,11.69,3.37,2.95,0,*4A
1496567248.72,52711,20.44,73974.8,11.69,3.79,3.45,0,*4D
1496567249.94,52712,20.44,73972.5,11.69,4.07,3.79,0,*4F
1496567251.18,52713,20.44,73972.3,11.67,3.63,3.41,0,*4E
1496567252.38,52714,20.44,73974.5,11.65,3.71,3.59,0,*41
1496567253.57,52715,20.44,73972.5,11.65,3.89,3.85,0,*46
1496567254.74,52716,20.44,73976.3,11.63,4.49,4.49,0,*4F
1496567255.95,52717,20.44,73976.0,11.61,4.37,4.27,0,*4D
1496567257.16,52718,20.44,73974.5,11.61,4.37,4.27,0,*42
1496567258.39,52719,20.44,73972.8,11.61,3.97,3.93,0,*46
1496567259.66,52720,20.44,73972.0,11.61,4.63,4.63,0,*48
1496567260.84,52721,20.44,73970.0,11.59,4.53,4.53,0,*42
1496567262.03,52722,20.44,73972.8,11.59,4.33,4.37,0,*45
1496567263.2,52723,20.44,73978.8,11.59,4.19,4.27,0,*4D
1496567264.44,52724,20.44,73978.0,11.59,4.75,4.75,0,*47
1496567265.63,52725,20.44,73972.8,11.59,4.41,4.37,0,*47
1496567266.86,52726,20.44,73972.5,11.59,3.45,3.49,0,*49
1496567268.12,52727,20.44,73978.5,11.57,3.71,3.79,0,*42
1496567269.35,52728,20.44,73978.0,11.53,4.57,4.59,0,*4F
1496567270.58,52729,20.44,73976.3,11.51,3.49,3.49,0,*42
1496567271.81,52730,20.44,73972.0,11.53,3.63,3.79,0,*43
1496567273.05,52731,20.44,73978.0,11.49,4.45,4.75,0,*41
1496567274.26,52732,20.44,73974.3,11.47,5.23,5.51,0,*4A
1496567275.45,52733,20.44,73978.8,11.47,5.19,5.41,0,*43
1496567276.68,52734,20.44,73978.3,11.49,5.01,5.15,0,*42
1496567277.89,52735,20.44,73982.3,11.51,5.05,5.29,0,*41
1496567279.11,52736,20.44,73980.3,11.51,4.89,5.01,0,*4D
1496567280.3,52737,20.44,73978.5,11.51,4.37,4.49,0,*44
1496567281.54,52738,20.44,73972.5,11.49,3.93,4.05,0,*43
1496567282.73,52739,20.44,73972.0,11.47,4.27,4.37,0,*45
1496567283.94,52740,20.44,73972.0,11.47,4.71,4.81,0,*45
1496567285.16,52741,20.44,73970.5,11.47,4.53,4.59,0,*41
1496567286.37,52742,20.44,73968.5,11.47,4.53,4.59,0,*42
1496567287.56,52743,20.44,73970.0,11.43,4.11,4.07,0,*4A
1496567288.75,52744,20.44,73970.3,11.43,4.37,4.37,0,*4A
1496567289.94,52745,20.44,73974.0,11.43,4.45,4.33,0,*4A
1496567291.13,52746,20.44,73976.5,11.43,4.37,4.37,0,*48
1496567292.34,52747,20.44,73978.0,11.41,4.19,4.23,0,*42
1496567293.55,52748,20.44,73976.8,11.41,4.85,4.85,0,*44
1496567294.76,52749,20.44,73980.3,11.41,4.85,4.85,0,*45
1496567296.01,52750,20.44,73978.0,11.41,3.97,3.97,0,*4D
1496567297.22,52751,20.44,73972.8,11.39,3.59,3.53,0,*49
1496567298.43,52752,20.44,73972.5,11.39,3.85,3.97,0,*43
1496567299.62,52753,20.44,73972.8,11.35,4.11,4.11,0,*4D
1496567300.83,52754,20.44,73972.3,11.35,2.95,3.19,0,*4F
1496567302.04,52755,20.44,73970.0,11.29,3.25,3.23,0,*40
1496567303.25,52756,20.44,73970.5,11.29,2.89,2.91,0,*4C
1496567304.48,52757,20.44,73978.0,11.25,2.77,2.39,0,*42
1496567305.71,52758,20.44,73974.8,11.25,2.13,1.93,0,*4C
1496567306.92,52759,20.44,73970.5,11.21,1.71,1.75,0,*46
1496567308.17,52760,20.44,73968.3,11.19,1.93,1.83,0,*42
1496567309.42,52761,20.44,73970.8,11.15,0.91,0.67,0,*47
1496567310.67,52762,20.44,73966.3,11.11,0.51,0.41,0,*48
1496567311.92,52763,20.44,73964.8,11.05,3.07,3.07,0,*4D
1496567313.14,52764,20.44,73964.5,11.05,2.77,2.65,0,*49
1496567314.37,52765,20.44,73964.0,10.99,3.07,2.95,0,*45
1496567315.62,52766,20.44,73966.5,10.99,2.51,2.39,0,*42
1496567316.82,52767,20.44,73966.0,10.97,2.91,2.89,0,*4A
1496567318.05,52768,20.44,73966.0,10.95,3.33,3.25,0,*49
1496567319.28,52769,20.44,73966.0,10.95,3.59,3.49,0,*4E
1496567320.51,52770,20.44,73966.3,10.93,3.11,3.07,0,*46
1496567321.73,52771,20.44,73974.8,10.91,3.29,3.23,0,*48
1496567322.96,52772,20.44,73974.5,10.91,3.67,3.63,0,*45
1496567324.21,52773,20.44,73974.3,10.91,2.81,2.69,0,*46